EW6606 Weather Reports


Display with metric or nautical units.
time (UTC)temp
F
wind
direction
speed
MPH
gust
MPH
rain 1hr
in
rain 24hr
in
rain mn
in
humidity
%
barometer
mb
20260510113302 62 140 0.0 2.0 0.00 0.00 0.00 96 1017.2
20260510112758 62 140 2.0 2.0 0.00 0.00 0.00 96 1016.9
20260510112256 62 240 0.0 1.0 0.00 0.00 0.00 96 1016.6
20260510111751 61 42 0.0 2.0 0.00 0.00 0.00 95 1016.6
20260510111248 61 142 0.0 0.0 0.00 0.00 0.00 95 1016.4
20260510110748 61 124 0.0 2.0 0.00 0.00 0.00 95 1016.2
20260510110246 61 89 0.0 0.0 0.00 0.00 0.00 95 1016.4
20260510105746 61 113 0.0 2.0 0.00 0.00 0.00 95 1016.2
20260510105241 61 89 0.0 1.0 0.00 0.00 0.00 95 1016.0
20260510104737 61 104 0.0 1.0 0.00 0.00 0.00 95 1016.2
20260510104235 61 63 0.0 0.0 0.00 0.00 0.00 95 1016.0
20260510103732 61 160 0.0 1.0 0.00 0.00 0.00 95 1015.8
20260510103229 61 89 0.0 1.0 0.00 0.00 0.00 95 1015.8
20260510102728 61 122 0.0 2.0 0.00 0.00 0.00 95 1015.6
20260510102224 61 113 0.0 2.0 0.00 0.00 0.00 95 1015.6
20260510101722 61 108 1.0 2.0 0.00 0.00 0.00 95 1015.7
20260510101220 61 106 0.0 2.0 0.00 0.00 0.00 95 1015.6
20260510100716 61 92 0.0 1.0 0.00 0.00 0.00 95 1015.6
20260510100214 61 95 1.0 1.0 0.00 0.00 0.00 95 1015.6
20260510095704 61 104 1.0 1.0 0.00 0.00 0.00 95 1015.4
20260510095159 60 71 0.0 2.0 0.00 0.00 0.00 95 1015.5
20260510094657 60 103 1.0 2.0 0.00 0.00 0.00 95 1015.2
20260510094154 60 129 0.0 1.0 0.00 0.00 0.00 95 1015.2
20260510093650 60 85 0.0 1.0 0.00 0.00 0.00 95 1015.2
20260510093148 60 104 0.0 1.0 0.00 0.00 0.00 95 1015.1
20260510092644 60 73 0.0 1.0 0.00 0.00 0.00 95 1015.0
20260510092139 60 69 0.0 2.0 0.00 0.00 0.00 95 1014.9
20260510091635 60 81 0.0 2.0 0.00 0.00 0.00 94 1014.8
20260510091131 61 55 0.0 2.0 0.00 0.00 0.00 94 1015.0
20260510090628 61 89 0.0 2.0 0.00 0.00 0.00 94 1014.6
20260510090124 61 89 0.0 1.0 0.00 0.00 0.00 94 1014.5
20260510085614 61 73 1.0 2.0 0.00 0.00 0.00 94 1014.8
20260510085110 61 47 1.0 2.0 0.00 0.00 0.00 94 1014.5
20260510084607 61 69 0.0 2.0 0.00 0.00 0.00 94 1014.3
20260510084103 61 93 1.0 2.0 0.00 0.00 0.00 94 1014.5
20260510083600 62 94 1.0 2.0 0.00 0.00 0.00 94 1014.1
20260510083056 62 93 1.0 2.0 0.00 0.00 0.00 94 1014.1
20260510082553 62 68 1.0 2.0 0.00 0.00 0.00 94 1014.2
20260510082048 62 89 0.0 2.0 0.02 0.00 0.00 94 1014.1
20260510081543 62 114 0.0 2.0 0.00 0.00 0.00 94 1014.0
20260510081039 62 117 0.0 2.0 0.00 0.00 0.00 94 1014.2
20260510080538 62 126 1.0 2.0 0.00 0.00 0.00 94 1014.0
20260510080036 62 98 1.0 2.0 0.00 0.00 0.00 94 1014.3
20260510075533 62 89 0.0 2.0 0.00 0.00 0.00 94 1014.3
20260510075030 62 88 1.0 2.0 0.00 0.00 0.00 94 1014.1
20260510074528 62 89 0.0 2.0 0.00 0.00 0.00 94 1014.2
20260510074023 62 103 1.0 2.0 0.00 0.00 0.00 94 1014.2
20260510073519 62 117 0.0 1.0 0.00 0.00 0.00 94 1014.2
20260510073016 62 104 1.0 2.0 0.00 0.00 0.00 94 1014.1
20260510072513 62 89 0.0 1.0 0.00 0.00 0.00 94 1014.2
20260510072008 62 109 0.0 1.0 0.00 0.00 0.00 94 1014.1
20260510071504 62 62 0.0 1.0 0.00 0.00 0.00 94 1014.1
20260510071003 62 93 0.0 1.0 0.00 0.00 0.00 94 1014.3
20260510070459 62 101 1.0 2.0 0.00 0.00 0.00 94 1014.2
20260510065955 62 78 0.0 1.0 0.00 0.00 0.00 94 1014.2
20260510065453 62 66 0.0 1.0 0.00 0.00 0.00 94 1014.5
20260510064948 62 95 0.0 1.0 0.00 0.00 0.00 94 1014.3
20260510064446 62 120 1.0 2.0 0.00 0.00 0.00 94 1014.3
20260510063942 62 99 0.0 1.0 0.00 0.00 0.00 94 1014.4
20260510063438 62 89 0.0 1.0 0.00 0.00 0.00 94 1014.3
20260510062936 62 89 0.0 1.0 0.00 0.00 0.00 94 1014.6
20260510062431 62 103 0.0 2.0 0.00 0.00 0.00 93 1014.5
20260510061927 63 114 2.0 2.0 0.00 0.00 0.00 93 1014.4
20260510061424 63 128 1.0 2.0 0.00 0.00 0.00 93 1014.8
20260510060920 63 111 2.0 2.0 0.00 0.00 0.00 93 1014.8
20260510060417 63 113 0.0 2.0 0.00 0.00 0.00 93 1014.8
20260510055913 63 110 1.0 2.0 0.00 0.00 0.00 93 1014.8
20260510055408 63 124 0.0 1.0 0.00 0.00 0.00 93 1014.9
20260510054901 63 125 0.0 1.0 0.00 0.00 0.00 93 1015.0
20260510054356 64 129 0.0 1.0 0.00 0.00 0.00 93 1015.0
20260510053851 63 129 0.0 1.0 0.00 0.00 0.00 93 1014.8
20260510053347 64 116 1.0 1.0 0.00 0.00 0.00 93 1014.6
20260510052844 64 130 0.0 0.0 0.00 0.00 0.00 93 1014.8
20260510052339 64 118 0.0 1.0 0.00 0.00 0.00 93 1015.1
20260510051836 64 117 0.0 1.0 0.00 0.00 0.00 93 1015.0
20260510051333 64 129 0.0 2.0 0.00 0.00 0.00 93 1014.9
20260510050830 64 55 0.0 1.0 0.00 0.00 0.00 93 1014.9
20260510050326 64 44 0.0 1.0 0.00 0.00 0.00 93 1015.1
20260510045823 64 37 0.0 1.0 0.00 0.07 0.07 93 1015.2
20260510045320 64 37 1.0 2.0 0.00 0.07 0.07 93 1015.0
20260510044817 64 89 0.0 1.0 0.00 0.07 0.07 93 1015.1
20260510044314 64 104 0.0 2.0 0.00 0.07 0.07 93 1014.9
20260510043810 64 117 1.0 2.0 0.00 0.07 0.07 93 1014.9
20260510043306 64 113 0.0 1.0 0.00 0.07 0.07 93 1014.8
20260510042804 64 93 1.0 1.0 0.00 0.07 0.07 93 1014.9
20260510042300 64 113 1.0 2.0 0.00 0.07 0.07 93 1014.9
20260510041756 64 110 1.0 2.0 0.00 0.07 0.07 92 1014.9
20260510041254 65 86 1.0 2.0 0.00 0.07 0.07 92 1015.2
20260510040751 65 66 0.0 2.0 0.00 0.07 0.07 92 1015.2
20260510040248 65 104 0.0 1.0 0.00 0.07 0.07 93 1015.2
20260510035743 65 104 0.0 1.0 0.00 0.07 0.07 92 1015.2
20260510035239 65 117 0.0 1.0 0.00 0.07 0.07 92 1015.3
20260510034734 65 113 0.0 1.0 0.00 0.07 0.07 92 1015.2
20260510034232 65 113 1.0 1.0 0.00 0.07 0.07 92 1015.2
20260510033729 66 103 0.0 1.0 0.00 0.07 0.07 92 1015.3
20260510033226 66 113 0.0 1.0 0.00 0.07 0.07 92 1015.3
20260510032722 66 50 0.0 0.0 0.00 0.07 0.07 92 1015.1
20260510032218 66 113 0.0 0.0 0.00 0.07 0.07 92 1015.2
20260510031713 66 113 0.0 1.0 0.00 0.07 0.07 92 1015.3
20260510031210 66 111 1.0 2.0 0.00 0.07 0.07 92 1015.3
20260510030704 66 117 0.0 1.0 0.00 0.07 0.07 92 1015.4
20260510030202 66 123 0.0 1.0 0.00 0.07 0.07 92 1015.1
20260510025659 66 120 0.0 1.0 0.00 0.07 0.07 92 1015.2
20260510025156 66 137 0.0 2.0 0.00 0.07 0.07 92 1014.9
20260510024653 66 104 0.0 1.0 0.00 0.07 0.07 92 1015.1
20260510024149 67 120 0.0 1.0 0.00 0.07 0.07 92 1015.0
20260510023645 67 128 1.0 2.0 0.00 0.07 0.07 92 1015.1
20260510023143 67 125 2.0 2.0 0.00 0.07 0.07 92 1015.0
20260510022643 67 107 0.0 1.0 0.00 0.07 0.07 92 1014.9
20260510022138 67 101 0.0 2.0 0.00 0.07 0.07 92 1014.6
20260510021634 67 122 0.0 2.0 0.00 0.07 0.07 92 1014.6
20260510021132 67 108 1.0 1.0 0.00 0.07 0.07 92 1014.5
20260510020626 67 96 1.0 2.0 0.00 0.07 0.07 91 1014.6
20260510020122 67 120 2.0 2.0 0.00 0.07 0.07 91 1014.5
20260510015618 67 106 1.0 2.0 0.00 0.07 0.07 91 1014.4
20260510015114 67 122 1.0 2.0 0.00 0.07 0.07 91 1014.5
20260510014610 67 104 2.0 2.0 0.00 0.07 0.07 91 1014.2
20260510014108 67 89 0.0 2.0 0.00 0.07 0.07 91 1014.2
20260510013608 68 128 1.0 2.0 0.00 0.07 0.07 90 1014.0
20260510013104 68 105 0.0 2.0 0.00 0.07 0.07 90 1013.8
20260510012603 68 111 1.0 2.0 0.00 0.07 0.07 90 1013.8
20260510012100 68 121 1.0 2.0 0.00 0.07 0.07 90 1013.7
20260510011559 68 141 1.0 2.0 0.00 0.07 0.07 90 1013.6
20260510011056 68 119 1.0 2.0 0.00 0.07 0.07 90 1013.4
20260510010552 68 124 2.0 2.0 0.00 0.07 0.07 89 1013.4
20260510010049 68 115 1.0 2.0 0.00 0.07 0.07 89 1013.4
20260510005544 68 137 2.0 3.0 0.00 0.07 0.07 89 1013.3
20260510005042 68 160 1.0 4.0 0.00 0.07 0.07 89 1013.3
20260510004540 68 132 1.0 3.0 0.00 0.07 0.07 88 1013.0
20260510004038 68 123 2.0 2.0 0.00 0.07 0.07 88 1013.2
20260510003534 69 124 2.0 2.0 0.00 0.07 0.07 88 1012.8
20260510003029 69 114 2.0 2.0 0.00 0.07 0.07 87 1013.0
20260510002525 69 108 1.0 2.0 0.00 0.07 0.07 87 1013.2
20260510002022 69 103 1.0 3.0 0.00 0.07 0.07 87 1013.2
20260510001520 69 114 1.0 3.0 0.00 0.07 0.07 87 1013.0
20260510001018 69 126 2.0 3.0 0.00 0.07 0.07 86 1013.0
20260510000513 69 130 1.0 2.0 0.00 0.07 0.07 86 1013.0
20260510000010 70 110 2.0 2.0 0.00 0.07 0.07 86 1012.8
20260509235507 70 113 1.0 2.0 0.00 0.07 0.07 86 1012.8
20260509235003 70 117 1.0 2.0 0.00 0.07 0.07 85 1012.7
20260509234500 70 147 0.0 1.0 0.00 0.07 0.07 85 1012.8
20260509233958 70 118 1.0 2.0 0.00 0.07 0.07 85 1012.5
20260509233455 70 133 0.0 2.0 0.00 0.07 0.07 85 1012.6
20260509232950 70 119 1.0 2.0 0.00 0.07 0.07 84 1012.4
20260509232449 71 116 1.0 2.0 0.00 0.07 0.07 84 1012.5
20260509231944 71 123 1.0 2.0 0.00 0.07 0.07 84 1012.4
20260509231441 71 154 1.0 2.0 0.00 0.07 0.07 83 1012.3
20260509230939 71 119 0.0 2.0 0.00 0.07 0.07 83 1012.2
20260509230436 71 133 2.0 2.0 0.00 0.07 0.07 82 1012.1
20260509225932 71 172 0.0 1.0 0.00 0.07 0.07 82 1012.4
20260509225428 71 129 0.0 0.0 0.00 0.07 0.07 82 1012.4
20260509224925 71 138 1.0 2.0 0.00 0.07 0.07 81 1012.4
20260509224420 72 135 0.0 1.0 0.00 0.07 0.07 81 1012.1
20260509223917 72 136 1.0 2.0 0.00 0.07 0.07 81 1012.2
20260509223414 72 170 2.0 3.0 0.00 0.07 0.07 80 1011.9
20260509222911 72 175 2.0 2.0 0.00 0.07 0.07 80 1012.0
20260509222407 72 153 1.0 2.0 0.00 0.07 0.07 79 1012.1
20260509221902 72 166 2.0 3.0 0.00 0.07 0.07 79 1012.1
20260509221400 72 133 1.0 2.0 0.00 0.07 0.07 78 1012.1
20260509220855 73 129 0.0 2.0 0.00 0.07 0.07 77 1012.1
20260509220351 73 141 1.0 2.0 0.00 0.07 0.07 76 1011.9
20260509215847 73 161 1.0 3.0 0.00 0.07 0.07 76 1011.9
20260509215344 73 103 0.0 2.0 0.00 0.07 0.07 75 1012.0
20260509214841 73 159 1.0 3.0 0.00 0.07 0.07 76 1012.2
20260509214338 73 167 1.0 3.0 0.00 0.07 0.07 74 1011.9
20260509213835 73 120 1.0 2.0 0.00 0.07 0.07 75 1011.9
20260509213330 73 104 0.0 1.0 0.00 0.07 0.07 74 1011.6
20260509212828 73 103 0.0 2.0 0.00 0.07 0.07 74 1011.7
20260509212326 73 186 0.0 2.0 0.00 0.07 0.07 74 1011.7
20260509211821 73 106 0.0 2.0 0.00 0.07 0.07 75 1011.7
20260509211317 73 104 0.0 2.0 0.00 0.07 0.07 75 1011.7
20260509210814 74 180 0.0 2.0 0.00 0.07 0.07 74 1011.5
20260509210312 74 189 2.0 3.0 0.00 0.07 0.07 74 1011.7
20260509205811 74 110 0.0 0.0 0.00 0.07 0.07 73 1011.4
20260509205307 75 106 0.0 2.0 0.00 0.07 0.07 73 1011.6
20260509204802 75 233 0.0 2.0 0.00 0.07 0.07 74 1011.9
20260509204259 74 89 0.0 0.0 0.00 0.07 0.07 76 1011.7
20260509203755 75 62 0.0 1.0 0.00 0.07 0.07 75 1011.6
20260509203253 75 76 1.0 2.0 0.00 0.07 0.07 75 1011.6
20260509202748 74 124 0.0 0.0 0.00 0.07 0.07 75 1011.9
20260509202244 74 124 0.0 2.0 0.00 0.07 0.07 75 1012.0
20260509201739 74 75 0.0 3.0 0.00 0.07 0.07 74 1011.8
20260509201236 74 43 0.0 1.0 0.00 0.07 0.07 77 1012.0
20260509200732 74 66 0.0 2.0 0.00 0.07 0.07 75 1012.0
20260509200227 74 116 1.0 2.0 0.00 0.07 0.07 76 1011.8
20260509195724 73 107 1.0 2.0 0.00 0.07 0.07 75 1012.0
20260509195218 73 146 2.0 3.0 0.00 0.07 0.07 76 1011.9
20260509194713 74 156 0.0 1.0 0.00 0.07 0.07 75 1012.1
20260509194210 74 76 0.0 3.0 0.00 0.07 0.07 77 1011.9
20260509193706 74 75 0.0 2.0 0.00 0.07 0.07 77 1011.9
20260509193201 73 73 2.0 3.0 0.00 0.07 0.07 76 1012.1
20260509192657 73 121 1.0 3.0 0.00 0.07 0.07 76 1012.1
20260509192153 73 271 2.0 4.0 0.00 0.07 0.07 74 1012.1
20260509191648 74 35 1.0 3.0 0.00 0.07 0.07 75 1012.2
20260509191145 74 32 3.0 3.0 0.00 0.07 0.07 76 1012.3
20260509190641 74 351 0.0 1.0 0.00 0.07 0.07 77 1012.3
20260509190138 74 214 2.0 5.0 0.00 0.07 0.07 77 1012.3
20260509185636 74 279 4.0 5.0 0.00 0.07 0.07 80 1012.5
20260509185132 73 49 0.0 4.0 0.00 0.07 0.07 80 1012.3
20260509184630 73 0 0.0 3.0 0.00 0.07 0.07 79 1012.4
20260509184126 73 355 1.0 3.0 0.00 0.07 0.07 81 1012.3
20260509183623 72 247 3.0 4.0 0.00 0.07 0.07 81 1012.3
20260509183118 72 32 2.0 5.0 0.00 0.07 0.07 80 1012.7
20260509182614 72 59 0.0 3.0 0.00 0.07 0.07 79 1012.6
20260509182111 71 246 1.0 5.0 0.00 0.07 0.07 81 1012.6
20260509181609 71 32 2.0 5.0 0.00 0.07 0.07 80 1012.8
20260509181106 72 23 2.0 3.0 0.00 0.07 0.07 82 1012.8
20260509180602 72 277 0.0 3.0 0.00 0.07 0.07 83 1013.1
20260509180100 71 277 5.0 5.0 0.00 0.07 0.07 83 1013.2
20260509175555 71 47 2.0 3.0 0.00 0.07 0.07 83 1013.3
20260509175052 71 129 2.0 2.0 0.00 0.07 0.07 86 1013.4
20260509174548 71 42 1.0 3.0 0.00 0.07 0.07 86 1013.4
20260509174043 71 351 0.0 4.0 0.00 0.07 0.07 86 1013.7
20260509173538 70 335 1.0 2.0 0.00 0.07 0.07 87 1013.6
20260509173035 70 53 0.0 4.0 0.00 0.07 0.07 87 1013.8
20260509172532 69 92 2.0 2.0 0.00 0.07 0.07 87 1013.6
20260509172028 69 157 0.0 2.0 0.00 0.07 0.07 87 1013.6
20260509171524 69 148 0.0 5.0 0.00 0.07 0.07 88 1013.6
20260509171020 69 211 1.0 2.0 0.00 0.07 0.07 89 1013.4
20260509170516 69 299 0.0 4.0 0.00 0.07 0.07 89 1013.6
20260509170012 69 236 0.0 3.0 0.00 0.07 0.07 89 1013.4
20260509165511 69 114 1.0 4.0 0.00 0.07 0.07 91 1013.5
20260509165007 68 79 2.0 3.0 0.00 0.07 0.07 91 1013.6
20260509164503 68 252 0.0 3.0 0.00 0.07 0.07 92 1013.5
20260509163958 68 285 3.0 4.0 0.00 0.07 0.07 93 1013.6
20260509163456 67 333 0.0 3.0 0.00 0.07 0.07 93 1013.7
20260509162955 67 36 0.0 3.0 0.00 0.07 0.07 93 1013.8
20260509162454 67 96 1.0 2.0 0.00 0.07 0.07 94 1013.8
20260509161950 67 133 0.0 4.0 0.00 0.07 0.07 95 1014.2
20260509161446 66 74 0.0 2.0 0.00 0.07 0.07 95 1014.0
20260509160942 66 199 0.0 3.0 0.00 0.07 0.07 95 1013.9
20260509160438 66 281 2.0 3.0 0.00 0.07 0.07 95 1013.9
20260509155933 65 227 0.0 1.0 0.00 0.07 0.07 95 1013.7
20260509155430 65 37 1.0 3.0 0.00 0.07 0.07 96 1013.9
20260509154926 65 50 0.0 1.0 0.00 0.07 0.07 96 1013.9
20260509154423 64 64 0.0 2.0 0.00 0.07 0.07 96 1013.8
20260509153920 64 65 0.0 2.0 0.00 0.07 0.07 96 1014.0
20260509153417 64 123 0.0 2.0 0.00 0.07 0.07 96 1013.8
20260509152914 64 257 0.0 2.0 0.00 0.07 0.07 96 1013.8
20260509152409 64 147 1.0 2.0 0.00 0.07 0.07 96 1013.9
20260509151907 64 66 1.0 2.0 0.00 0.07 0.07 96 1013.8
20260509151403 63 89 0.0 1.0 0.00 0.07 0.07 96 1014.0
20260509150901 63 251 1.0 2.0 0.00 0.07 0.07 96 1014.0
20260509150359 63 310 0.0 2.0 0.00 0.07 0.07 96 1013.9
20260509145856 63 330 1.0 3.0 0.00 0.07 0.07 96 1013.8
20260509145350 63 55 0.0 3.0 0.00 0.07 0.07 96 1013.8
20260509144847 63 111 1.0 2.0 0.00 0.07 0.07 96 1013.7
20260509144344 62 62 0.0 1.0 0.00 0.07 0.07 96 1013.7
20260509143841 62 118 3.0 4.0 0.00 0.07 0.07 96 1013.5
20260509143338 62 104 1.0 3.0 0.00 0.07 0.07 96 1014.0
20260509142834 62 118 1.0 3.0 0.00 0.07 0.07 96 1014.0
20260509142331 62 141 0.0 2.0 0.00 0.07 0.07 96 1013.9
20260509141827 62 89 0.0 2.0 0.00 0.07 0.07 96 1013.8
20260509141328 62 129 2.0 2.0 0.00 0.07 0.07 96 1013.8
20260509140820 62 147 1.0 3.0 0.00 0.07 0.07 96 1013.6
20260509140317 62 102 1.0 2.0 0.00 0.07 0.07 96 1013.9
20260509135816 62 145 1.0 2.0 0.00 0.07 0.07 96 1013.6
20260509135312 62 136 2.0 3.0 0.00 0.07 0.07 96 1013.7
20260509134810 62 142 1.0 2.0 0.00 0.07 0.07 96 1013.7
20260509134307 62 87 0.0 2.0 0.00 0.07 0.07 96 1013.8
20260509133804 62 94 0.0 3.0 0.00 0.07 0.07 96 1013.8
20260509133300 62 110 2.0 2.0 0.00 0.07 0.07 96 1013.9
20260509132759 62 55 0.0 2.0 0.00 0.07 0.07 96 1013.8
20260509132258 61 87 0.0 2.0 0.00 0.07 0.07 96 1013.7
20260509131753 61 106 0.0 2.0 0.00 0.07 0.07 96 1013.6
20260509131250 61 97 1.0 2.0 0.00 0.07 0.07 95 1013.3
20260509130747 61 100 1.0 3.0 0.00 0.07 0.07 95 1013.1
20260509130242 61 107 1.0 2.0 0.00 0.07 0.07 95 1013.3
20260509125739 61 110 0.0 1.0 0.00 0.07 0.07 95 1013.2
20260509125236 61 102 1.0 2.0 0.00 0.07 0.07 95 1012.9
20260509124732 61 121 2.0 3.0 0.00 0.07 0.07 95 1013.1
20260509124229 61 135 0.0 2.0 0.00 0.07 0.07 95 1012.9
20260509123727 61 70 0.0 1.0 0.00 0.07 0.07 95 1012.8
20260509123224 61 50 0.0 1.0 0.00 0.07 0.07 95 1012.8
20260509122720 61 101 1.0 2.0 0.00 0.07 0.07 95 1013.0
20260509122217 61 111 0.0 2.0 0.00 0.07 0.07 95 1012.9
20260509121713 61 109 0.0 2.0 0.00 0.07 0.07 95 1013.0
20260509121211 61 108 0.0 1.0 0.00 0.07 0.07 95 1013.1
20260509120709 61 135 0.0 1.0 0.00 0.07 0.07 95 1012.9
20260509120207 61 103 0.0 1.0 0.00 0.07 0.07 95 1012.9
20260509115704 60 126 0.0 2.0 0.00 0.07 0.07 95 1012.8
20260509115201 60 75 0.0 0.0 0.00 0.07 0.07 95 1012.7
20260509114700 60 117 0.0 1.0 0.00 0.07 0.07 95 1012.5
20260509114158 60 89 0.0 1.0 0.00 0.07 0.07 95 1012.5
20260509113656 60 122 0.0 1.0 0.00 0.07 0.07 95 1012.7